EXPRESS-AMU1            
1 41191U 15082A   19260.32757792  .00000150  00000-0  00000+0 0  9997
2 41191   0.0259 255.1235 0002768 294.8145 320.0642  1.00273163 13793
BREEZE-M R/B            
1 41192U 15082B   19260.64337104  .00000012  00000-0  00000+0 0  9991
2 41192  21.9295 172.9770 6034509  87.2651 335.9818  2.16571036 29511
BREEZE-M DEB [TANK]     
1 41193U 15082C   19259.79833010  .00000796  00000-0  20889-3 0  9993
2 41193  49.4805 117.9853 5275777 147.3631 260.5654  5.13579491 69815